Time,TemperatureF,DewpointF,PressureIn,WindDirection,WindDirectionDegrees,WindSpeedMPH,WindSpeedGustMPH,Humidity,HourlyPrecipIn,Conditions,Clouds,dailyrainin,SolarRadiationWatts/m^2,SoftwareType,DateUTC
2013-06-02 00:02:00,44.0,-99.9,-100.00,NNE,15,5.0,12.0,97,0.03,,,0.73,0.000000,,2013-06-02 04:02:00,
2013-06-02 00:12:00,43.0,42.0,-100.00,North,349,5.0,12.0,97,0.08,,,-99.99,0.000000,,2013-06-02 04:12:00,
2013-06-02 00:33:00,43.0,42.0,-100.00,North,349,5.0,12.0,97,0.08,,,-99.99,0.000000,,2013-06-02 04:33:00,
2013-06-02 00:42:00,43.0,42.0,-100.00,North,349,5.0,12.0,97,0.08,,,-99.99,0.000000,,2013-06-02 04:42:00,
2013-06-02 00:53:00,43.0,42.0,-100.00,North,349,5.0,12.0,97,0.08,,,-99.99,0.000000,,2013-06-02 04:53:00,
2013-06-02 01:02:00,43.0,42.0,-100.00,North,349,5.0,12.0,97,0.08,,,-99.99,0.000000,,2013-06-02 05:02:00,
2013-06-02 01:12:00,42.0,41.0,-100.00,North,350,6.0,16.0,96,0.05,,,0.86,0.000000,,2013-06-02 05:12:00,
2013-06-02 01:32:00,42.0,41.0,-100.00,North,350,6.0,16.0,96,0.05,,,0.86,0.000000,,2013-06-02 05:32:00,
2013-06-02 01:42:00,42.0,41.0,-100.00,North,350,6.0,16.0,96,0.05,,,0.86,0.000000,,2013-06-02 05:42:00,
2013-06-02 01:52:00,42.0,41.0,-100.00,North,350,6.0,16.0,96,0.05,,,0.86,0.000000,,2013-06-02 05:52:00,
2013-06-02 02:01:00,42.0,41.0,-100.00,North,350,6.0,16.0,96,0.05,,,0.86,0.000000,,2013-06-02 06:01:00,
2013-06-02 02:32:00,40.0,39.0,-100.00,North,349,8.0,16.0,96,0.06,,,0.92,0.000000,,2013-06-02 06:32:00,
2013-06-02 02:42:00,40.0,39.0,-100.00,North,349,8.0,16.0,96,0.06,,,0.92,0.000000,,2013-06-02 06:42:00,
2013-06-02 02:52:00,40.0,39.0,-100.00,North,349,8.0,16.0,96,0.06,,,0.92,0.000000,,2013-06-02 06:52:00,
2013-06-02 03:01:00,40.0,39.0,-100.00,North,349,8.0,16.0,96,0.06,,,0.92,0.000000,,2013-06-02 07:01:00,
2013-06-02 03:11:00,40.0,39.0,-100.00,North,349,8.0,16.0,96,0.06,,,0.92,0.000000,,2013-06-02 07:11:00,
2013-06-02 03:32:00,40.0,39.0,-100.00,NNW,348,8.0,18.0,96,0.01,,,0.93,0.000000,,2013-06-02 07:32:00,
2013-06-02 03:42:00,40.0,39.0,-100.00,NNW,348,8.0,18.0,96,0.01,,,0.93,0.000000,,2013-06-02 07:42:00,
2013-06-02 03:52:00,40.0,39.0,-100.00,NNW,348,8.0,18.0,96,0.01,,,0.93,0.000000,,2013-06-02 07:52:00,
2013-06-02 04:01:00,40.0,39.0,-100.00,NNW,348,8.0,18.0,96,0.01,,,0.93,0.000000,,2013-06-02 08:01:00,
2013-06-02 04:11:00,40.0,39.0,-100.00,NNW,348,8.0,18.0,96,0.01,,,0.93,0.000000,,2013-06-02 08:11:00,
2013-06-02 04:32:00,40.0,39.0,-100.00,NNW,341,8.0,20.0,96,0.01,,,0.94,0.000000,,2013-06-02 08:32:00,
2013-06-02 04:42:00,40.0,39.0,-100.00,NNW,341,8.0,20.0,96,0.01,,,0.94,0.000000,,2013-06-02 08:42:00,
2013-06-02 04:52:00,40.0,39.0,-100.00,NNW,341,8.0,20.0,96,0.01,,,0.94,0.000000,,2013-06-02 08:52:00,
2013-06-02 05:01:00,40.0,39.0,-100.00,NNW,341,8.0,20.0,96,0.01,,,0.94,0.000000,,2013-06-02 09:01:00,
2013-06-02 05:11:00,40.0,39.0,-100.00,NNW,341,8.0,20.0,96,0.01,,,0.94,0.000000,,2013-06-02 09:11:00,
2013-06-02 05:12:00,39.0,38.0,-100.00,NNW,345,10.0,22.0,95,0.00,,,0.94,0.000000,,2013-06-02 09:12:00,
2013-06-02 05:33:00,39.0,38.0,-100.00,NNW,345,10.0,22.0,95,0.00,,,0.94,0.000000,,2013-06-02 09:33:00,
2013-06-02 05:43:00,39.0,38.0,-100.00,NNW,345,10.0,22.0,95,0.00,,,0.94,0.000000,,2013-06-02 09:43:00,
2013-06-02 05:53:00,39.0,38.0,-100.00,NNW,345,10.0,22.0,95,0.00,,,0.94,0.000000,,2013-06-02 09:53:00,
2013-06-02 06:02:00,39.0,38.0,-100.00,NNW,345,10.0,22.0,95,0.00,,,0.94,0.000000,,2013-06-02 10:02:00,
2013-06-02 06:12:00,38.0,37.0,-100.00,NNW,341,9.0,20.0,96,0.00,,,0.94,0.000000,,2013-06-02 10:12:00,
2013-06-02 06:33:00,38.0,37.0,-100.00,NNW,341,9.0,20.0,96,0.00,,,0.94,0.000000,,2013-06-02 10:33:00,
2013-06-02 06:42:00,38.0,37.0,-100.00,NNW,341,9.0,20.0,96,0.00,,,0.94,0.000000,,2013-06-02 10:42:00,
2013-06-02 06:52:00,38.0,37.0,-100.00,NNW,341,9.0,20.0,96,0.00,,,0.94,0.000000,,2013-06-02 10:52:00,
2013-06-02 07:02:00,38.0,37.0,-100.00,NNW,341,9.0,20.0,96,0.00,,,0.94,0.000000,,2013-06-02 11:02:00,
2013-06-02 07:32:00,38.0,37.0,-100.00,NNW,342,9.0,21.0,95,0.00,,,0.94,17.000000,,2013-06-02 11:32:00,
2013-06-02 07:42:00,38.0,37.0,-100.00,NNW,342,9.0,21.0,95,0.00,,,0.94,17.000000,,2013-06-02 11:42:00,
2013-06-02 07:52:00,38.0,37.0,-100.00,NNW,342,9.0,21.0,95,0.00,,,0.94,17.000000,,2013-06-02 11:52:00,
2013-06-02 08:01:00,38.0,37.0,-100.00,NNW,342,9.0,21.0,95,0.00,,,0.94,17.000000,,2013-06-02 12:01:00,
2013-06-02 08:11:00,38.0,37.0,-100.00,NNW,342,9.0,21.0,95,0.00,,,0.94,17.000000,,2013-06-02 12:11:00,
2013-06-02 08:32:00,38.0,36.0,-100.00,NNW,343,9.0,21.0,94,0.00,,,0.94,62.000000,,2013-06-02 12:32:00,
2013-06-02 08:42:00,38.0,36.0,-100.00,NNW,343,9.0,21.0,94,0.00,,,0.94,62.000000,,2013-06-02 12:42:00,
2013-06-02 08:52:00,38.0,36.0,-100.00,NNW,343,9.0,21.0,94,0.00,,,0.94,62.000000,,2013-06-02 12:52:00,
2013-06-02 09:01:00,38.0,36.0,-100.00,NNW,343,9.0,21.0,94,0.00,,,0.94,62.000000,,2013-06-02 13:01:00,
2013-06-02 09:11:00,38.0,36.0,-100.00,NNW,343,9.0,21.0,94,0.00,,,0.94,62.000000,,2013-06-02 13:11:00,
2013-06-02 09:32:00,38.0,36.0,-100.00,NNW,347,8.0,26.0,94,0.00,,,0.94,127.000000,,2013-06-02 13:32:00,
2013-06-02 09:42:00,38.0,36.0,-100.00,NNW,347,8.0,26.0,94,0.00,,,0.94,127.000000,,2013-06-02 13:42:00,
2013-06-02 09:52:00,38.0,36.0,-100.00,NNW,347,8.0,26.0,94,0.00,,,0.94,127.000000,,2013-06-02 13:52:00,
2013-06-02 10:02:00,38.0,36.0,-100.00,NNW,347,8.0,26.0,94,0.00,,,0.94,127.000000,,2013-06-02 14:02:00,
2013-06-02 10:11:00,38.0,36.0,-100.00,NNW,347,8.0,26.0,94,0.00,,,0.94,127.000000,,2013-06-02 14:11:00,
2013-06-02 10:32:00,40.0,38.0,-100.00,North,350,7.0,20.0,92,0.00,,,0.94,161.000000,,2013-06-02 14:32:00,
2013-06-02 10:42:00,40.0,38.0,-100.00,North,350,7.0,20.0,92,0.00,,,0.94,161.000000,,2013-06-02 14:42:00,
2013-06-02 10:52:00,40.0,38.0,-100.00,North,350,7.0,20.0,92,0.00,,,0.94,161.000000,,2013-06-02 14:52:00,
2013-06-02 11:01:00,40.0,38.0,-100.00,North,350,7.0,20.0,92,0.00,,,0.94,161.000000,,2013-06-02 15:01:00,
2013-06-02 11:11:00,40.0,38.0,-100.00,North,350,7.0,20.0,92,0.00,,,0.94,161.000000,,2013-06-02 15:11:00,
2013-06-02 11:12:00,41.0,38.0,-100.00,NNW,333,9.0,20.0,89,0.00,,,0.94,224.000000,,2013-06-02 15:12:00,
2013-06-02 11:33:00,41.0,38.0,-100.00,NNW,333,9.0,20.0,89,0.00,,,0.94,224.000000,,2013-06-02 15:33:00,
2013-06-02 11:43:00,41.0,38.0,-100.00,NNW,333,9.0,20.0,89,0.00,,,0.94,224.000000,,2013-06-02 15:43:00,
2013-06-02 11:53:00,41.0,38.0,-100.00,NNW,333,9.0,20.0,89,0.00,,,0.94,224.000000,,2013-06-02 15:53:00,
2013-06-02 12:03:00,41.0,38.0,-100.00,NNW,333,9.0,20.0,89,0.00,,,0.94,224.000000,,2013-06-02 16:03:00,
2013-06-02 12:12:00,43.0,37.0,-100.00,NNW,332,10.0,21.0,80,0.00,,,0.94,280.000000,,2013-06-02 16:12:00,
2013-06-02 12:33:00,43.0,37.0,-100.00,NNW,332,10.0,21.0,80,0.00,,,0.94,280.000000,,2013-06-02 16:33:00,
2013-06-02 12:42:00,43.0,37.0,-100.00,NNW,332,10.0,21.0,80,0.00,,,0.94,280.000000,,2013-06-02 16:42:00,
2013-06-02 12:53:00,43.0,37.0,-100.00,NNW,332,10.0,21.0,80,0.00,,,0.94,280.000000,,2013-06-02 16:53:00,
2013-06-02 13:02:00,43.0,37.0,-100.00,NNW,332,10.0,21.0,80,0.00,,,0.94,280.000000,,2013-06-02 17:02:00,
2013-06-02 13:33:00,44.0,37.0,-100.00,NNW,334,7.0,18.0,76,0.00,,,0.94,322.000000,,2013-06-02 17:33:00,
2013-06-02 13:42:00,44.0,37.0,-100.00,NNW,334,7.0,18.0,76,0.00,,,0.94,322.000000,,2013-06-02 17:42:00,
2013-06-02 13:52:00,44.0,37.0,-100.00,NNW,334,7.0,18.0,76,0.00,,,0.94,322.000000,,2013-06-02 17:52:00,
2013-06-02 14:02:00,44.0,37.0,-100.00,NNW,334,7.0,18.0,76,0.00,,,0.94,322.000000,,2013-06-02 18:02:00,
2013-06-02 14:11:00,44.0,37.0,-100.00,NNW,334,7.0,18.0,76,0.00,,,0.94,322.000000,,2013-06-02 18:11:00,
2013-06-02 14:32:00,47.0,39.0,-100.00,NNW,339,7.0,17.0,73,0.00,,,0.94,402.000000,,2013-06-02 18:32:00,
2013-06-02 14:42:00,47.0,39.0,-100.00,NNW,339,7.0,17.0,73,0.00,,,0.94,402.000000,,2013-06-02 18:42:00,
2013-06-02 14:52:00,47.0,39.0,-100.00,NNW,339,7.0,17.0,73,0.00,,,0.94,402.000000,,2013-06-02 18:52:00,
2013-06-02 15:01:00,47.0,39.0,-100.00,NNW,339,7.0,17.0,73,0.00,,,0.94,402.000000,,2013-06-02 19:01:00,
2013-06-02 15:11:00,47.0,39.0,-100.00,NNW,339,7.0,17.0,73,0.00,,,0.94,402.000000,,2013-06-02 19:11:00,
2013-06-02 15:32:00,49.0,37.0,-100.00,NNW,330,8.0,17.0,63,0.00,,,0.94,578.000000,,2013-06-02 19:32:00,
2013-06-02 15:42:00,49.0,37.0,-100.00,NNW,330,8.0,17.0,63,0.00,,,0.94,578.000000,,2013-06-02 19:42:00,
2013-06-02 15:52:00,49.0,37.0,-100.00,NNW,330,8.0,17.0,63,0.00,,,0.94,578.000000,,2013-06-02 19:52:00,
2013-06-02 16:02:00,49.0,37.0,-100.00,NNW,330,8.0,17.0,63,0.00,,,0.94,578.000000,,2013-06-02 20:02:00,
2013-06-02 16:11:00,49.0,37.0,-100.00,NNW,330,8.0,17.0,63,0.00,,,0.94,578.000000,,2013-06-02 20:11:00,
2013-06-02 16:12:00,55.0,36.0,-100.00,North,0,6.0,16.0,49,0.00,,,0.70,837.000000,,2013-06-02 20:12:00,
2013-06-02 16:32:00,55.0,36.0,-100.00,North,0,6.0,16.0,49,0.00,,,0.70,837.000000,,2013-06-02 20:32:00,
2013-06-02 16:42:00,55.0,36.0,-100.00,North,0,6.0,16.0,49,0.00,,,0.70,837.000000,,2013-06-02 20:42:00,
2013-06-02 16:52:00,55.0,36.0,-100.00,North,0,6.0,16.0,49,0.00,,,0.70,837.000000,,2013-06-02 20:52:00,
2013-06-02 17:01:00,55.0,36.0,-100.00,North,0,6.0,16.0,49,0.00,,,0.70,837.000000,,2013-06-02 21:01:00,
2013-06-02 17:12:00,57.0,35.0,-100.00,North,358,6.0,14.0,43,0.00,,,0.67,812.000000,,2013-06-02 21:12:00,
2013-06-02 17:33:00,57.0,35.0,-100.00,North,358,6.0,14.0,43,0.00,,,0.67,812.000000,,2013-06-02 21:33:00,
2013-06-02 17:43:00,57.0,35.0,-100.00,North,358,6.0,14.0,43,0.00,,,0.67,812.000000,,2013-06-02 21:43:00,
2013-06-02 17:53:00,57.0,35.0,-100.00,North,358,6.0,14.0,43,0.00,,,0.67,812.000000,,2013-06-02 21:53:00,
2013-06-02 18:03:00,57.0,35.0,-100.00,North,358,6.0,14.0,43,0.00,,,0.67,812.000000,,2013-06-02 22:03:00,
2013-06-02 18:12:00,55.0,38.0,-100.00,ENE,59,5.0,15.0,53,0.00,,,0.53,620.000000,,2013-06-02 22:12:00,
2013-06-02 18:33:00,55.0,38.0,-100.00,ENE,59,5.0,15.0,53,0.00,,,0.53,620.000000,,2013-06-02 22:33:00,
2013-06-02 18:42:00,55.0,38.0,-100.00,ENE,59,5.0,15.0,53,0.00,,,0.53,620.000000,,2013-06-02 22:42:00,
2013-06-02 18:53:00,55.0,38.0,-100.00,ENE,59,5.0,15.0,53,0.00,,,0.53,620.000000,,2013-06-02 22:53:00,
2013-06-02 19:02:00,55.0,38.0,-100.00,ENE,59,5.0,15.0,53,0.00,,,0.53,620.000000,,2013-06-02 23:02:00,
2013-06-02 19:12:00,53.0,37.0,-100.00,ESE,105,4.0,11.0,55,0.00,,,0.32,481.000000,,2013-06-02 23:12:00,
2013-06-02 19:32:00,53.0,37.0,-100.00,ESE,105,4.0,11.0,55,0.00,,,0.32,481.000000,,2013-06-02 23:32:00,
2013-06-02 19:43:00,53.0,37.0,-100.00,ESE,105,4.0,11.0,55,0.00,,,0.32,481.000000,,2013-06-02 23:43:00,
2013-06-02 19:52:00,53.0,37.0,-100.00,ESE,105,4.0,11.0,55,0.00,,,0.32,481.000000,,2013-06-02 23:52:00,
2013-06-02 20:01:00,53.0,37.0,-100.00,ESE,105,4.0,11.0,55,0.00,,,0.32,481.000000,,2013-06-03 00:01:00,
2013-06-02 21:12:00,47.0,36.0,-100.00,East,84,2.0,7.0,66,-99.99,,,0.26,110.000000,,2013-06-03 01:12:00,
2013-06-02 21:32:00,47.0,36.0,-100.00,East,84,2.0,7.0,66,-99.99,,,0.26,110.000000,,2013-06-03 01:32:00,
2013-06-02 21:42:00,47.0,36.0,-100.00,East,84,2.0,7.0,66,-99.99,,,0.26,110.000000,,2013-06-03 01:42:00,
2013-06-02 21:52:00,47.0,36.0,-100.00,East,84,2.0,7.0,66,-99.99,,,0.26,110.000000,,2013-06-03 01:52:00,
2013-06-02 22:02:00,47.0,36.0,-100.00,East,84,2.0,7.0,66,-99.99,,,0.26,110.000000,,2013-06-03 02:02:00,
2013-06-02 22:12:00,39.0,37.0,-100.00,South,176,1.0,3.0,91,0.00,,,0.24,6.000000,,2013-06-03 02:12:00,
2013-06-02 22:32:00,39.0,37.0,-100.00,South,176,1.0,3.0,91,0.00,,,0.24,6.000000,,2013-06-03 02:32:00,
2013-06-02 22:42:00,39.0,37.0,-100.00,South,176,1.0,3.0,91,0.00,,,0.24,6.000000,,2013-06-03 02:42:00,
2013-06-02 22:52:00,39.0,37.0,-100.00,South,176,1.0,3.0,91,0.00,,,0.24,6.000000,,2013-06-03 02:52:00,
2013-06-02 23:02:00,39.0,37.0,-100.00,South,176,1.0,3.0,91,0.00,,,0.24,6.000000,,2013-06-03 03:02:00,
2013-06-02 23:12:00,37.0,36.0,-100.00,SSE,154,0.0,2.0,96,0.00,,,0.21,0.000000,,2013-06-03 03:12:00,
2013-06-02 23:33:00,37.0,36.0,-100.00,SSE,154,0.0,2.0,96,0.00,,,0.21,0.000000,,2013-06-03 03:33:00,
2013-06-02 23:43:00,37.0,36.0,-100.00,SSE,154,0.0,2.0,96,0.00,,,0.21,0.000000,,2013-06-03 03:43:00,
2013-06-02 23:53:00,37.0,36.0,-100.00,SSE,154,0.0,2.0,96,0.00,,,0.21,0.000000,,2013-06-03 03:53:00,